STARLINK-1331, 45578

Orbit data source: Space-Track

STARLINK-1331, 45578 is a payload satellite owned by SpaceX/Seattle (US) in LEO that was launched on Wed, 22 Apr 2020 UTC via an FALCON 9 launch vehicle from the Air Force Eastern Test Range (AFETR). Payload-class satellites include a variety of spacecraft equipped with specific instruments for various scientific and technological missions. These include communications satellites like Starlink; space stations such as the ISS; scientific satellites like the Hubble; Earth observation satellites from companies like Planet Labs, Umbra, and HawkEye 360; GPS; miniature CubeSats for education and research; and military/defense satellites.

Loading next visibility...
Identifier
45578, 2020-025AZ
Orbit
LEO
Country
Flag of USUS
Related business
Manufacturer
SpaceX/Seattle
Mission
Operational Commercial Communications
Bus & Motor
STARLINK, Unknown motor
Mass
260 kg wet, ~248 kg dry
Launch date (UTC)
2020-04-22 (5 years ago)
Launch vehicle
FALCON 9
Launch site
Air Force Eastern Test Range (AFETR)
Object type
Payload
Rocket body
Debris
Shape & HBR
Box + 1 Pan, 10.1 m
Radar Cross Section
13.562 m², Large (>1 m²)

Expand to show TLE details & history
Last TLE update: 1 day ago

TLE from 1 day ago
0 STARLINK-1331
1 45578U 20025AZ  25291.86908520  .00005179  00000-0  36620-3 0  9997
2 45578  53.0570 353.2786 0001763  89.9831 270.1360 15.06413299304141
Epoch: 2025-10-18T20:51Z
TLE epoch observation values (Epoch: 2025-10-18T20:51:28.961Z)
Latitude
-0.00002°
Longitude
12.814°
Altitude
548.048 km
Speed
7.589 km/s
True Right ascension
23h 33m 06s
True Declination
0° 00' 00"
Sunlit
Object was in full shadow at epoch
Visualization orbit readout
Latitude
Unknown
Longitude
Unknown
Altitude
Unknown
Speed
Unknown
Apparent Right ascension
Unknown
Apparent Declination
Unknown
Sunlit
N/A
Visualization observer readout
Local Sidereal Time
20:15:44
Azimuth
Unknown
Elevation
Unknown
Doppler factor
Unknown
Orbital elements
Apogee altitude
548.662 km
Perigee altitude
546.22 km
Semi-major axis
6,925.578 km
Eccentricity
0.00018
Inclination
53.057°
RAAN
353.2786°
Arg. of periapsis
89.9831°
True anomaly
270.1158°
Mean anomaly
270.136°
Eccentric anomaly
270.1259°
Mean motion
3.76582 °/min
Orbital period
95.6 mins
BSTAR
0.0003662
Loading maneuver chart data...
Computing Atmospheric mass density...
Loading historical data...
Loading historical data...
Loading historical data...
Loading historical data...
Loading historical data...
Loading historical data...
Loading historical data...

Documentation

Showing up to 5 results
|